Location: ????????
(55.0097°N, 38.5678°E)
Time: 15:21:47
(UTC+00:00)

USA 215 - Pass Details

Date: 14 April 2024
Orbit: 1100 x 1107 km, 123.0° (Epoch: 22 April)

Event Time Altitude Azimuth Distance (km) Brightness Sun altitude
Rises 01:35:06 0° 89° (E) 3,925 7.4 -7.3°
Reaches altitude 10° 01:37:35 10° 88° (E) 2,967 6.7 -7.0°
Maximum altitude 01:44:08 77° 5° (N) 1,136 3.5 -6.2°
Drops below altitude 10° 01:50:40 10° 281° (W) 2,963 5.0 -5.3°
Sets 01:53:08 0° 280° (W) 3,921 5.6 -5.0°
